When you browse on this site, cookies collect data to enhance your experience and personalize the content and advertising you see.
Visit our Privacy Policy to learn more. By continuing to use the site, you agree to this use of cookies and data.
  • In Austria
  • List of Countries
  • For 7 days
  • Water Temperature
  • Satellite Maps
  • Weather Map
  • News
  • Weather Widgets
  • user-avatar
    Login

    Hourly Weather Stuttgart

    Today, 17 January, Thursday

    Time Temperature Precipitation Wind Pressure Humidity
    00:00 +2°C° 0 mm 3 mps 730 mmHg 75%
    01:00 +2°C° 0 mm 3 mps 730 mmHg 76%
    02:00 +3°C° 0 mm 3 mps 729 mmHg 79%
    03:00 +3°C° 0 mm 4 mps 729 mmHg 81%
    04:00 +3°C° 0 mm 4 mps 729 mmHg 84%
    05:00 +3°C° 0 mm 4 mps 729 mmHg 83%
    06:00 +4°C° 0 mm 4 mps 729 mmHg 82%
    07:00 +4°C° 0 mm 4 mps 728 mmHg 81%
    08:00 +4°C° 0.4 mm 4 mps 728 mmHg 81%
    09:00 +3°C° 0.4 mm 5 mps 728 mmHg 82%
    10:00 +5°C° 0.4 mm 5 mps 728 mmHg 83%
    11:00 +5°C° 0.2 mm 5 mps 728 mmHg 81%
    12:00 +5°C° 0.2 mm 5 mps 728 mmHg 80%
    13:00 +5°C° 0.2 mm 5 mps 728 mmHg 79%
    14:00 +4°C° 0.1 mm 6 mps 728 mmHg 77%
    15:00 +4°C° 0.1 mm 6 mps 728 mmHg 75%
    16:00 +4°C° 0.1 mm 6 mps 728 mmHg 73%
    17:00 +3°C° 0.1 mm 6 mps 729 mmHg 75%
    18:00 +2°C° 0.1 mm 6 mps 729 mmHg 77%
    19:00 +2°C° 0.1 mm 6 mps 730 mmHg 79%
    20:00 +1°C° 0.4 mm 6 mps 731 mmHg 81%
    21:00 +1°C° 0.4 mm 5 mps 731 mmHg 83%
    22:00 0°C° 0.4 mm 5 mps 732 mmHg 84%
    23:00 0°C° 0.3 mm 4 mps 732 mmHg 84%

    Tomorrow, 18 January, Friday

    Time Temperature Precipitation Wind Pressure Humidity
    00:00 0°C° 0.3 mm 4 mps 733 mmHg 84%
    01:00 0°C° 0.3 mm 3 mps 733 mmHg 84%
    02:00 -1°C° 0 mm 3 mps 734 mmHg 86%
    03:00 -1°C° 0 mm 3 mps 734 mmHg 88%
    04:00 -2°C° 0 mm 3 mps 735 mmHg 89%
    05:00 -2°C° 0 mm 3 mps 735 mmHg 89%
    06:00 -2°C° 0 mm 2 mps 736 mmHg 89%
    07:00 -3°C° 0 mm 2 mps 736 mmHg 89%
    08:00 -2°C° 0 mm 2 mps 737 mmHg 87%
    09:00 0°C° 0 mm 1 mps 737 mmHg 84%
    10:00 +1°C° 0 mm 1 mps 738 mmHg 82%
    11:00 +1°C° 0 mm 1 mps 738 mmHg 78%
    12:00 +2°C° 0 mm 1 mps 738 mmHg 73%
    13:00 +3°C° 0 mm 1 mps 738 mmHg 69%
    14:00 +3°C° 0 mm 1 mps 738 mmHg 70%
    15:00 +2°C° 0 mm 1 mps 737 mmHg 71%
    16:00 +2°C° 0 mm 1 mps 737 mmHg 72%
    17:00 +1°C° 0 mm 1 mps 737 mmHg 74%
    18:00 +1°C° 0 mm 1 mps 738 mmHg 77%
    19:00 0°C° 0 mm 1 mps 738 mmHg 80%
    20:00 0°C° 0 mm 1 mps 738 mmHg 80%
    21:00 -1°C° 0 mm 1 mps 738 mmHg 80%
    22:00 -1°C° 0 mm 1 mps 737 mmHg 80%
    23:00 -1°C° 0 mm 1 mps 737 mmHg 79%

    Day after tomorrow, 19 January, Saturday

    Time Temperature Precipitation Wind Pressure Humidity
    00:00 -1°C° 0 mm 1 mps 737 mmHg 79%
    01:00 -1°C° 0 mm 1 mps 737 mmHg 79%
    02:00 -1°C° 0 mm 1 mps 737 mmHg 80%
    03:00 -1°C° 0 mm 1 mps 736 mmHg 81%
    04:00 -2°C° 0 mm 1 mps 736 mmHg 82%
    05:00 -2°C° 0 mm 1 mps 736 mmHg 82%
    06:00 -2°C° 0 mm 1 mps 736 mmHg 82%
    07:00 -2°C° 0 mm 1 mps 736 mmHg 83%
    08:00 -3°C° 0 mm 2 mps 736 mmHg 81%
    09:00 -3°C° 0 mm 2 mps 736 mmHg 78%
    10:00 -3°C° 0 mm 2 mps 736 mmHg 76%
    11:00 -2°C° 0 mm 2 mps 735 mmHg 72%
    12:00 -1°C° 0 mm 2 mps 735 mmHg 67%
    13:00 +1°C° 0 mm 2 mps 734 mmHg 63%
    14:00 +1°C° 0 mm 2 mps 734 mmHg 64%
    15:00 +1°C° 0 mm 2 mps 733 mmHg 65%
    16:00 -1°C° 0 mm 2 mps 733 mmHg 67%
    17:00 -1°C° 0 mm 2 mps 733 mmHg 70%
    18:00 0°C° 0 mm 1 mps 733 mmHg 74%
    19:00 -1°C° 0 mm 1 mps 733 mmHg 78%
    20:00 -1°C° 0 mm 1 mps 733 mmHg 78%
    21:00 -1°C° 0 mm 1 mps 733 mmHg 78%
    22:00 -2°C° 0 mm 1 mps 733 mmHg 78%
    23:00 -2°C° 0 mm 1 mps 733 mmHg 78%

    20 January, Sunday

    Time Temperature Precipitation Wind Pressure Humidity
    00:00 -2°C° 0 mm 1 mps 733 mmHg 78%
    01:00 -2°C° 0 mm 1 mps 733 mmHg 78%
    02:00 -2°C° 0 mm 1 mps 733 mmHg 78%
    03:00 -2°C° 0 mm 1 mps 733 mmHg 78%
    04:00 -2°C° 0 mm 1 mps 733 mmHg 78%
    05:00 -3°C° 0 mm 0 mps 733 mmHg 79%
    06:00 -3°C° 0 mm 0 mps 733 mmHg 79%
    07:00 -3°C° 0 mm 0 mps 733 mmHg 79%
    08:00 -2°C° 0 mm 0 mps 734 mmHg 77%
    09:00 -1°C° 0 mm 0 mps 734 mmHg 74%
    10:00 -1°C° 0 mm 0 mps 734 mmHg 71%
    11:00 0°C° 0 mm 0 mps 735 mmHg 68%
    12:00 +1°C° 0 mm 0 mps 735 mmHg 64%
    13:00 +3°C° 0 mm 1 mps 735 mmHg 60%
    14:00 +3°C° 0 mm 1 mps 735 mmHg 62%
    15:00 +2°C° 0 mm 1 mps 735 mmHg 64%
    16:00 +2°C° 0 mm 1 mps 735 mmHg 67%
    17:00 0°C° 0 mm 0 mps 735 mmHg 69%
    18:00 -1°C° 0 mm 0 mps 736 mmHg 71%
    19:00 -1°C° 0 mm 0 mps 736 mmHg 73%
    20:00 -1°C° 0 mm 0 mps 737 mmHg 74%
    21:00 -1°C° 0 mm 0 mps 737 mmHg 75%
    22:00 -1°C° 0 mm 0 mps 738 mmHg 76%
    23:00 -2°C° 0 mm 0 mps 738 mmHg 78%

    21 January, Monday

    Time Temperature Precipitation Wind Pressure Humidity
    00:00 -2°C° 0 mm 0 mps 738 mmHg 80%
    01:00 -2°C° 0 mm 0 mps 738 mmHg 82%
    02:00 -2°C° 0 mm 0 mps 738 mmHg 84%
    03:00 -2°C° 0 mm 0 mps 738 mmHg 86%
    04:00 -2°C° 0 mm 0 mps 738 mmHg 88%
    05:00 -1°C° 0 mm 1 mps 738 mmHg 89%
    06:00 -1°C° 0 mm 1 mps 738 mmHg 89%
    07:00 -1°C° 0 mm 1 mps 738 mmHg 90%
    08:00 0°C° 0 mm 1 mps 738 mmHg 87%
    09:00 0°C° 0 mm 1 mps 738 mmHg 84%
    10:00 +1°C° 0 mm 1 mps 738 mmHg 81%
    11:00 +1°C° 0 mm 2 mps 738 mmHg 77%
    12:00 +2°C° 0 mm 2 mps 737 mmHg 72%
    13:00 +2°C° 0 mm 2 mps 737 mmHg 67%
    14:00 +2°C° 0.4 mm 2 mps 737 mmHg 74%
    15:00 +1°C° 0.4 mm 2 mps 736 mmHg 81%
    16:00 +1°C° 0.4 mm 2 mps 736 mmHg 89%
    17:00 +1°C° 0.2 mm 2 mps 736 mmHg 90%
    18:00 -1°C° 0.2 mm 2 mps 736 mmHg 92%
    19:00 -1°C° 0.2 mm 2 mps 737 mmHg 93%
    20:00 -1°C° 0.1 mm 2 mps 737 mmHg 93%
    21:00 -1°C° 0.1 mm 2 mps 737 mmHg 93%
    22:00 -1°C° 0.1 mm 3 mps 737 mmHg 93%
    23:00 -1°C° 0.1 mm 2 mps 737 mmHg 93%

    22 January, Tuesday

    Time Temperature Precipitation Wind Pressure Humidity
    00:00 -1°C° 0.1 mm 2 mps 737 mmHg 92%
    01:00 -1°C° 0.1 mm 2 mps 736 mmHg 92%
    02:00 -1°C° 0 mm 2 mps 736 mmHg 93%
    03:00 0°C° 0 mm 1 mps 735 mmHg 93%
    04:00 0°C° 0 mm 1 mps 734 mmHg 93%
    05:00 -1°C° 0 mm 1 mps 734 mmHg 93%
    06:00 -1°C° 0 mm 1 mps 733 mmHg 93%
    07:00 -1°C° 0 mm 1 mps 732 mmHg 93%
    08:00 -3°C° 0 mm 2 mps 732 mmHg 88%
    09:00 -2°C° 0 mm 2 mps 731 mmHg 83%
    10:00 -2°C° 0 mm 2 mps 730 mmHg 78%
    11:00 -1°C° 0 mm 3 mps 729 mmHg 74%
    12:00 0°C° 0 mm 3 mps 728 mmHg 69%
    13:00 +1°C° 0 mm 3 mps 727 mmHg 64%
    14:00 +1°C° 0 mm 3 mps 726 mmHg 65%
    15:00 +1°C° 0 mm 3 mps 725 mmHg 67%
    16:00 0°C° 0 mm 3 mps 724 mmHg 68%
    17:00 -1°C° 0 mm 3 mps 724 mmHg 72%
    18:00 -1°C° 0 mm 2 mps 724 mmHg 76%
    19:00 -2°C° 0 mm 2 mps 724 mmHg 79%
    20:00 -2°C° 0 mm 2 mps 724 mmHg 81%
    21:00 -2°C° 0 mm 2 mps 724 mmHg 82%
    22:00 -2°C° 0 mm 2 mps 724 mmHg 83%
    23:00 -2°C° 0 mm 2 mps 724 mmHg 84%
    Show more